| time (UTC) | temp F | wind direction | speed knots | gust knots | rain 1hr in | rain 24hr in | rain mn in | humidity % | barometer mb |
| 20260507174501 | 64 | 195 | 3.5 | 5.2 | 0.00 | 0.00 | 0.00 | 36 | 1017.2 |
| 20260507173001 | 64 | 218 | 4.3 | 6.1 | 0.00 | 0.00 | 0.00 | 36 | 1017.5 |
| 20260507171501 | 64 | 247 | 1.7 | 3.5 | 0.00 | 0.00 | 0.00 | 37 | 1017.5 |
| 20260507170002 | 64 | 181 | 3.5 | 5.2 | 0.00 | 0.00 | 0.00 | 37 | 1017.2 |
| 20260507164522 | 64 | 199 | 3.5 | 5.2 | 0.00 | 0.00 | 0.00 | 36 | 1017.0 |
| 20260507163001 | 65 | 216 | 2.6 | 5.2 | 0.00 | 0.00 | 0.00 | 42 | 1017.1 |
| 20260507161501 | 65 | 222 | 2.6 | 4.3 | 0.00 | 0.00 | 0.00 | 38 | 1017.2 |
| 20260507160001 | 66 | 234 | 2.6 | 4.3 | 0.00 | 0.00 | 0.00 | 38 | 1017.3 |
| 20260507154501 | 67 | 210 | 3.5 | 4.3 | 0.00 | 0.00 | 0.00 | 35 | 1017.0 |
| 20260507153001 | 68 | 195 | 3.5 | 7.0 | 0.00 | 0.00 | 0.00 | 36 | 1017.2 |
| 20260507151501 | 68 | 203 | 3.5 | 3.5 | 0.00 | 0.00 | 0.00 | 39 | 1017.0 |
| 20260507150002 | 69 | 171 | 4.3 | 7.0 | 0.00 | 0.00 | 0.00 | 38 | 1016.9 |
| 20260507144502 | 69 | 197 | 3.5 | 5.2 | 0.00 | 0.00 | 0.00 | 35 | 1016.8 |
| 20260507143001 | 70 | 216 | 4.3 | 7.0 | 0.00 | 0.00 | 0.00 | 32 | 1016.8 |
| 20260507141501 | 71 | 183 | 4.3 | 7.0 | 0.00 | 0.00 | 0.00 | 36 | 1016.6 |
| 20260507140023 | 73 | 194 | 3.5 | 5.2 | 0.00 | 0.00 | 0.00 | 37 | 1016.2 |
| 20260507134501 | 73 | 215 | 3.5 | 5.2 | 0.00 | 0.00 | 0.00 | 37 | 1016.0 |
| 20260507133002 | 72 | 211 | 2.6 | 4.3 | 0.00 | 0.00 | 0.00 | 33 | 1016.0 |
| 20260507131502 | 72 | 178 | 4.3 | 5.2 | 0.00 | 0.00 | 0.00 | 30 | 1016.0 |
| 20260507130004 | 71 | 187 | 3.5 | 5.2 | 0.00 | 0.00 | 0.00 | 32 | 1016.2 |
| 20260507124501 | 72 | 196 | 3.5 | 5.2 | 0.00 | 0.00 | 0.00 | 30 | 1016.4 |
| 20260507123002 | 74 | 183 | 3.5 | 4.3 | 0.00 | 0.00 | 0.00 | 29 | 1016.4 |
| 20260507121501 | 74 | 181 | 2.6 | 5.2 | 0.00 | 0.00 | 0.00 | 29 | 1016.5 |
| 20260507120002 | 75 | 206 | 3.5 | 7.0 | 0.00 | 0.00 | 0.00 | 30 | 1016.4 |
| 20260507114501 | 76 | 175 | 4.3 | 7.0 | 0.00 | 0.00 | 0.00 | 35 | 1016.3 |
| 20260507113002 | 77 | 188 | 4.3 | 7.0 | 0.00 | 0.00 | 0.00 | 39 | 1016.0 |
| 20260507111503 | 76 | 190 | 3.5 | 5.2 | 0.00 | 0.00 | 0.00 | 39 | 1016.3 |
| 20260507110003 | 76 | 177 | 4.3 | 5.2 | 0.00 | 0.00 | 0.00 | 39 | 1016.2 |
| 20260507104507 | 76 | 225 | 2.6 | 4.3 | 0.00 | 0.00 | 0.00 | 37 | 1016.1 |
| 20260507103002 | 75 | 213 | 3.5 | 6.1 | 0.00 | 0.00 | 0.00 | 40 | 1016.1 |
| 20260507101502 | 74 | 196 | 3.5 | 5.2 | 0.00 | 0.00 | 0.00 | 42 | 1016.2 |
| 20260507100003 | 75 | 174 | 4.3 | 7.0 | 0.00 | 0.00 | 0.00 | 38 | 1016.3 |
| 20260507094502 | 74 | 180 | 3.5 | 7.0 | 0.00 | 0.00 | 0.00 | 38 | 1016.2 |
| 20260507093003 | 74 | 212 | 3.5 | 8.7 | 0.00 | 0.00 | 0.00 | 43 | 1016.1 |
| 20260507091523 | 74 | 203 | 3.5 | 7.0 | 0.00 | 0.00 | 0.00 | 41 | 1016.2 |
| 20260507090004 | 74 | 203 | 2.6 | 3.5 | 0.00 | 0.00 | 0.00 | 43 | 1016.1 |
| 20260507084523 | 74 | 251 | 2.6 | 4.3 | 0.00 | 0.00 | 0.00 | 45 | 1016.1 |
| 20260507083003 | 74 | 168 | 1.7 | 5.2 | 0.00 | 0.00 | 0.00 | 48 | 1016.2 |
| 20260507081502 | 73 | 231 | 2.6 | 6.1 | 0.00 | 0.00 | 0.00 | 48 | 1016.3 |
| 20260507080025 | 71 | 180 | 2.6 | 5.2 | 0.00 | 0.00 | 0.00 | 51 | 1016.4 |
| 20260507074502 | 72 | 255 | 1.7 | 1.7 | 0.00 | 0.00 | 0.00 | 54 | 1016.1 |
| 20260507073002 | 72 | 259 | 1.7 | 5.2 | 0.00 | 0.00 | 0.00 | 54 | 1015.9 |
| 20260507071503 | 71 | 251 | 1.7 | 3.5 | 0.00 | 0.00 | 0.00 | 50 | 1016.1 |
| 20260507070006 | 71 | 215 | 1.7 | 3.5 | 0.00 | 0.00 | 0.00 | 51 | 1016.3 |
| 20260507064502 | 71 | 218 | 1.7 | 3.5 | 0.00 | 0.00 | 0.00 | 50 | 1016.3 |
| 20260507063003 | 70 | 221 | 1.7 | 5.2 | 0.00 | 0.00 | 0.00 | 46 | 1016.4 |
| 20260507061504 | 70 | 6 | 1.7 | 1.7 | 0.00 | 0.00 | 0.00 | 49 | 1016.3 |
| 20260507060003 | 69 | 22 | 0.9 | 1.7 | 0.00 | 0.00 | 0.00 | 52 | 1016.3 |
| 20260507054502 | 68 | 5 | 1.7 | 1.7 | 0.00 | 0.00 | 0.00 | 50 | 1016.3 |
| 20260507053003 | 67 | 333 | 0.9 | 1.7 | 0.00 | 0.00 | 0.00 | 47 | 1016.4 |
| 20260507051503 | 66 | 360 | 0.9 | 1.7 | 0.00 | 0.00 | 0.00 | 51 | 1016.4 |
| 20260507050003 | 64 | 292 | 0.9 | 1.7 | 0.00 | 0.00 | 0.00 | 58 | 1016.8 |
| 20260507044503 | 61 | 283 | 1.7 | 1.7 | 0.00 | 0.00 | 0.00 | 60 | 1016.9 |
| 20260507043003 | 57 | 270 | 0.9 | 1.7 | 0.00 | 0.00 | 0.00 | 67 | 1017.4 |
| 20260507041524 | 53 | 279 | 1.7 | 1.7 | 0.00 | 0.00 | 0.00 | 72 | 1018.0 |
| 20260507040004 | 51 | 275 | 1.7 | 1.7 | 0.00 | 0.00 | 0.00 | 72 | 1018.2 |
| 20260507034503 | 50 | 273 | 2.6 | 4.3 | 0.00 | 0.00 | 0.00 | 72 | 1018.4 |
| 20260507033003 | 50 | 280 | 1.7 | 1.7 | 0.00 | 0.00 | 0.00 | 72 | 1018.3 |
| 20260507031503 | 52 | 306 | 2.6 | 4.3 | 0.00 | 0.00 | 0.00 | 69 | 1017.9 |
| 20260507030004 | 51 | 270 | 0.9 | 1.7 | 0.00 | 0.00 | 0.00 | 71 | 1017.7 |
| 20260507024503 | 51 | 286 | 2.6 | 4.3 | 0.00 | 0.00 | 0.00 | 70 | 1017.8 |
| 20260507023003 | 52 | 285 | 2.6 | 4.3 | 0.00 | 0.00 | 0.00 | 67 | 1017.7 |
| 20260507021503 | 52 | 290 | 1.7 | 1.7 | 0.00 | 0.00 | 0.00 | 65 | 1017.5 |
| 20260507020004 | 53 | 308 | 1.7 | 4.3 | 0.00 | 0.00 | 0.00 | 60 | 1017.2 |
| 20260507014525 | 53 | 296 | 1.7 | 4.3 | 0.00 | 0.00 | 0.00 | 62 | 1017.2 |
| 20260507013004 | 53 | 290 | 2.6 | 4.3 | 0.00 | 0.00 | 0.00 | 63 | 1017.2 |
| 20260507011525 | 53 | 278 | 1.7 | 4.3 | 0.00 | 0.00 | 0.00 | 63 | 1016.9 |
| 20260507010026 | 53 | 281 | 2.6 | 4.3 | 0.00 | 0.00 | 0.00 | 63 | 1016.9 |
| 20260507004504 | 52 | 281 | 2.6 | 4.3 | 0.00 | 0.00 | 0.00 | 66 | 1017.1 |
| 20260507003004 | 53 | 298 | 2.6 | 4.3 | 0.00 | 0.00 | 0.00 | 65 | 1016.9 |
| 20260507001505 | 53 | 295 | 2.6 | 4.3 | 0.00 | 0.00 | 0.00 | 66 | 1017.0 |
| 20260507000026 | 54 | 281 | 3.5 | 4.3 | 0.00 | 0.00 | 0.00 | 62 | 1017.1 |
| 20260506234501 | 55 | 271 | 1.7 | 4.3 | 0.00 | 0.00 | 0.00 | 60 | 1017.1 |
| 20260506233002 | 57 | 303 | 2.6 | 4.3 | 0.00 | 0.00 | 0.00 | 57 | 1017.0 |
| 20260506231501 | 55 | 299 | 2.6 | 4.3 | 0.00 | 0.00 | 0.00 | 62 | 1017.5 |
| 20260506230002 | 53 | 301 | 2.6 | 4.3 | 0.00 | 0.00 | 0.00 | 64 | 1017.7 |
| 20260506224521 | 52 | 291 | 2.6 | 4.3 | 0.00 | 0.00 | 0.00 | 67 | 1017.8 |
| 20260506223000 | 53 | 270 | 1.7 | 1.7 | 0.00 | 0.00 | 0.00 | 67 | 1017.8 |
| 20260506221522 | 54 | 297 | 2.6 | 4.3 | 0.00 | 0.00 | 0.00 | 68 | 1017.9 |
| 20260506220005 | 52 | 288 | 2.6 | 4.3 | 0.00 | 0.00 | 0.00 | 72 | 1018.0 |
| 20260506214521 | 52 | 299 | 1.7 | 4.3 | 0.00 | 0.00 | 0.00 | 72 | 1018.0 |
| 20260506213001 | 52 | 290 | 2.6 | 4.3 | 0.00 | 0.00 | 0.00 | 71 | 1018.1 |
| 20260506211501 | 53 | 283 | 1.7 | 1.7 | 0.00 | 0.00 | 0.00 | 70 | 1018.2 |
| 20260506210033 | 53 | 312 | 2.6 | 4.3 | 0.00 | 0.00 | 0.00 | 70 | 1018.3 |
| 20260506204501 | 53 | 288 | 2.6 | 4.3 | 0.00 | 0.00 | 0.00 | 70 | 1018.4 |
| 20260506203022 | 54 | 312 | 2.6 | 4.3 | 0.00 | 0.00 | 0.00 | 68 | 1018.2 |
| 20260506201522 | 54 | 289 | 2.6 | 4.3 | 0.00 | 0.00 | 0.00 | 69 | 1018.2 |
| 20260506200002 | 55 | 285 | 0.9 | 1.7 | 0.00 | 0.00 | 0.00 | 67 | 1017.9 |
| 20260506194522 | 55 | 301 | 2.6 | 4.3 | 0.00 | 0.00 | 0.00 | 66 | 1017.7 |
| 20260506193001 | 56 | 308 | 2.6 | 4.3 | 0.00 | 0.00 | 0.00 | 64 | 1017.4 |
| 20260506191501 | 56 | 283 | 1.7 | 4.3 | 0.00 | 0.00 | 0.00 | 65 | 1017.3 |
| 20260506190002 | 56 | 295 | 1.7 | 4.3 | 0.00 | 0.00 | 0.00 | 64 | 1017.1 |
| 20260506184501 | 55 | 287 | 1.7 | 1.7 | 0.00 | 0.00 | 0.00 | 67 | 1017.2 |
| 20260506181522 | 58 | 291 | 1.7 | 1.7 | 0.00 | 0.00 | 0.00 | 62 | 1016.5 |
| 20260506180002 | 60 | 278 | 0.9 | 1.7 | 0.00 | 0.00 | 0.00 | 57 | 1016.2 |